Location: Beetenbrück
(52.8113°N, 9.5946°E)
Time: 22:08:39
(UTC+00:00)

Cosmos 407 Rocket - Pass Details

Date: 14 April 2026
Orbit: 740 x 781 km, 74.0° (Epoch: 12 May)

Event Time Altitude Azimuth Distance (km) Brightness Sun altitude
Rises 21:29:38 0° 336° (NNW) 3,219 8.2 -23.1°
Reaches altitude 10° 21:32:11 10° 345° (NNW) 2,284 7.0 -23.3°
Maximum altitude 21:36:59 38° 53° (NE) 1,141 4.4 -23.6°
Enters shadow 21:38:05 34° 81° (E) 1,224 4.3 -23.7°
